| time (UTC) | temp C | wind direction | speed KPH | gust KPH | rain 1hr cm | rain 24hr cm | rain mn cm | humidity % | barometer mb |
| 20260906232307 | 15 | 140 | 9.7 | 14.5 | 0.00 | 0.00 | 0.00 | 89 | 1016.5 |
| 20260906231805 | 15 | 144 | 9.7 | 16.1 | 0.00 | 0.00 | 0.00 | 89 | 1016.6 |
| 20260906231305 | 14 | 130 | 9.7 | 16.1 | 0.00 | 0.00 | 0.00 | 89 | 1016.6 |
| 20260906230807 | 14 | 177 | 9.7 | 14.5 | 0.00 | 0.00 | 0.00 | 90 | 1016.7 |
| 20260906230647 | 14 | 147 | 6.4 | 17.7 | 0.00 | 0.00 | 0.00 | 90 | 1016.7 |
| 20260906225805 | 14 | 134 | 9.7 | 17.7 | 0.00 | 0.00 | 0.00 | 90 | 1016.7 |
| 20260906225644 | 14 | 157 | 11.3 | 16.1 | 0.00 | 0.00 | 0.00 | 90 | 1016.7 |
| 20260906224804 | 14 | 157 | 6.4 | 14.5 | 0.00 | 0.00 | 0.00 | 91 | 1016.6 |
| 20260906224640 | 14 | 131 | 8.0 | 14.5 | 0.00 | 0.00 | 0.00 | 90 | 1016.6 |
| 20260906223807 | 14 | 164 | 9.7 | 14.5 | 0.00 | 0.00 | 0.00 | 90 | 1016.7 |
| 20260906223308 | 14 | 133 | 11.3 | 14.5 | 0.00 | 0.00 | 0.00 | 90 | 1016.7 |
| 20260906222804 | 14 | 112 | 9.7 | 14.5 | 0.00 | 0.00 | 0.00 | 91 | 1016.8 |
| 20260906222653 | 14 | 123 | 9.7 | 12.9 | 0.00 | 0.00 | 0.00 | 91 | 1016.7 |
| 20260906221808 | 14 | 169 | 9.7 | 12.9 | 0.00 | 0.00 | 0.00 | 91 | 1016.9 |
| 20260906221307 | 14 | 128 | 9.7 | 12.9 | 0.00 | 0.00 | 0.00 | 91 | 1016.9 |
| 20260906220805 | 14 | 121 | 9.7 | 14.5 | 0.00 | 0.00 | 0.00 | 92 | 1016.9 |
| 20260906220306 | 13 | 152 | 9.7 | 16.1 | 0.00 | 0.00 | 0.00 | 91 | 1017.0 |
| 20260906215804 | 13 | 136 | 9.7 | 16.1 | 0.00 | 0.00 | 0.00 | 91 | 1017.0 |
| 20260906215309 | 13 | 134 | 11.3 | 16.1 | 0.00 | 0.00 | 0.00 | 91 | 1017.0 |
| 20260906214806 | 13 | 119 | 11.3 | 12.9 | 0.00 | 0.00 | 0.00 | 91 | 1016.9 |
| 20260906214313 | 13 | 131 | 4.8 | 9.7 | 0.00 | 0.00 | 0.00 | 91 | 1017.0 |
| 20260906213808 | 13 | 107 | 6.4 | 11.3 | 0.00 | 0.00 | 0.00 | 91 | 1017.1 |
| 20260906213307 | 13 | 104 | 8.0 | 12.9 | 0.00 | 0.00 | 0.00 | 91 | 1017.2 |
| 20260906212803 | 13 | 107 | 6.4 | 12.9 | 0.00 | 0.00 | 0.00 | 91 | 1017.1 |
| 20260906212310 | 13 | 134 | 9.7 | 14.5 | 0.00 | 0.00 | 0.00 | 92 | 1017.2 |
| 20260906211807 | 13 | 134 | 9.7 | 14.5 | 0.00 | 0.00 | 0.00 | 92 | 1017.2 |
| 20260906211408 | 13 | 140 | 9.7 | 17.7 | 0.00 | 0.00 | 0.00 | 93 | 1017.3 |
| 20260906211339 | 13 | 116 | 9.7 | 14.5 | 0.00 | 0.00 | 0.00 | 92 | 1017.3 |
| 20260906210934 | 13 | 144 | 11.3 | 14.5 | 0.00 | 0.00 | 0.00 | 92 | 1017.2 |
| 20260906205802 | 13 | 148 | 9.7 | 17.7 | 0.00 | 0.00 | 0.00 | 93 | 1017.3 |
| 20260906205306 | 13 | 144 | 6.4 | 14.5 | 0.00 | 0.00 | 0.00 | 93 | 1017.2 |
| 20260906205143 | 13 | 126 | 9.7 | 14.5 | 0.00 | 0.00 | 0.00 | 93 | 1017.2 |
| 20260906204308 | 13 | 123 | 9.7 | 16.1 | 0.00 | 0.00 | 0.00 | 93 | 1017.3 |
| 20260906203806 | 13 | 106 | 11.3 | 19.3 | 0.00 | 0.00 | 0.00 | 93 | 1017.3 |
| 20260906203306 | 13 | 150 | 12.9 | 19.3 | 0.00 | 0.00 | 0.00 | 93 | 1017.5 |
| 20260906202807 | 13 | 126 | 12.9 | 17.7 | 0.00 | 0.00 | 0.00 | 94 | 1017.3 |
| 20260906202307 | 12 | 119 | 12.9 | 14.5 | 0.00 | 0.00 | 0.00 | 94 | 1017.3 |
| 20260906201802 | 12 | 136 | 9.7 | 16.1 | 0.00 | 0.00 | 0.00 | 94 | 1017.5 |
| 20260906201305 | 12 | 114 | 8.0 | 16.1 | 0.00 | 0.00 | 0.00 | 94 | 1017.6 |
| 20260906200800 | 12 | 128 | 6.4 | 11.3 | 0.00 | 0.00 | 0.00 | 94 | 1017.5 |
| 20260906200304 | 12 | 109 | 6.4 | 11.3 | 0.00 | 0.00 | 0.00 | 94 | 1017.7 |
| 20260906195801 | 12 | 121 | 6.4 | 11.3 | 0.00 | 0.00 | 0.00 | 94 | 1017.6 |
| 20260906195306 | 12 | 123 | 8.0 | 16.1 | 0.00 | 0.00 | 0.00 | 94 | 1017.7 |
| 20260906195126 | 12 | 128 | 9.7 | 16.1 | 0.00 | 0.00 | 0.00 | 94 | 1017.7 |
| 20260906194303 | 12 | 123 | 8.0 | 14.5 | 0.00 | 0.00 | 0.00 | 94 | 1017.8 |
| 20260906193806 | 12 | 119 | 9.7 | 14.5 | 0.00 | 0.00 | 0.00 | 94 | 1017.8 |
| 20260906193306 | 12 | 122 | 6.4 | 11.3 | 0.00 | 0.00 | 0.00 | 94 | 1017.9 |
| 20260906192811 | 12 | 115 | 6.4 | 12.9 | 0.00 | 0.00 | 0.00 | 94 | 1017.8 |
| 20260906192306 | 12 | 132 | 6.4 | 12.9 | 0.00 | 0.00 | 0.00 | 94 | 1017.8 |
| 20260906191802 | 12 | 101 | 6.4 | 12.9 | 0.00 | 0.00 | 0.00 | 94 | 1017.9 |
| 20260906191305 | 12 | 119 | 6.4 | 12.9 | 0.00 | 0.00 | 0.00 | 94 | 1018.0 |
| 20260906191123 | 11 | 130 | 9.7 | 16.1 | 0.00 | 0.00 | 0.00 | 94 | 1018.1 |
| 20260906190302 | 11 | 121 | 8.0 | 16.1 | 0.00 | 0.00 | 0.00 | 94 | 1018.0 |
| 20260906185801 | 11 | 128 | 11.3 | 14.5 | 0.00 | 0.00 | 0.00 | 94 | 1018.1 |
| 20260906185307 | 11 | 130 | 4.8 | 12.9 | 0.00 | 0.00 | 0.00 | 94 | 1018.0 |
| 20260906184808 | 11 | 121 | 8.0 | 12.9 | 0.00 | 0.00 | 0.00 | 94 | 1018.1 |
| 20260906184308 | 11 | 127 | 4.8 | 9.7 | 0.00 | 0.00 | 0.00 | 94 | 1018.1 |
| 20260906183803 | 11 | 122 | 8.0 | 12.9 | 0.00 | 0.00 | 0.00 | 94 | 1018.2 |
| 20260906183302 | 11 | 123 | 8.0 | 12.9 | 0.00 | 0.00 | 0.00 | 94 | 1018.2 |
| 20260906182801 | 11 | 120 | 6.4 | 12.9 | 0.00 | 0.00 | 0.00 | 94 | 1018.2 |
| 20260906182624 | 11 | 130 | 8.0 | 11.3 | 0.00 | 0.00 | 0.00 | 94 | 1018.2 |
| 20260906181802 | 11 | 131 | 9.7 | 12.9 | 0.00 | 0.00 | 0.00 | 94 | 1018.3 |
| 20260906181504 | 11 | 108 | 8.0 | 12.9 | 0.00 | 0.00 | 0.00 | 94 | 1018.5 |
| 20260906181417 | 11 | 131 | 9.7 | 12.9 | 0.00 | 0.00 | 0.00 | 94 | 1018.3 |
| 20260906180308 | 11 | 108 | 8.0 | 12.9 | 0.00 | 0.00 | 0.00 | 94 | 1018.5 |
| 20260906180137 | 11 | 113 | 6.4 | 11.3 | 0.00 | 0.00 | 0.00 | 94 | 1018.3 |
| 20260906175312 | 11 | 147 | 4.8 | 8.0 | 0.00 | 0.00 | 0.00 | 94 | 1018.3 |
| 20260906174805 | 11 | 115 | 6.4 | 6.4 | 0.00 | 0.00 | 0.00 | 94 | 1018.6 |
| 20260906174657 | 11 | 148 | 6.4 | 8.0 | 0.00 | 0.00 | 0.00 | 94 | 1018.5 |
| 20260906173805 | 11 | 148 | 6.4 | 8.0 | 0.00 | 0.00 | 0.00 | 94 | 1018.5 |
| 20260906173307 | 11 | 140 | 3.2 | 6.4 | 0.00 | 0.00 | 0.00 | 94 | 1018.5 |
| 20260906172805 | 11 | 140 | 3.2 | 6.4 | 0.00 | 0.00 | 0.00 | 94 | 1018.5 |
| 20260906172309 | 11 | 98 | 3.2 | 8.0 | 0.00 | 0.00 | 0.00 | 94 | 1018.5 |
| 20260906171805 | 11 | 109 | 6.4 | 9.7 | 0.00 | 0.00 | 0.00 | 94 | 1018.5 |
| 20260906171307 | 11 | 121 | 4.8 | 9.7 | 0.00 | 0.00 | 0.00 | 94 | 1018.6 |
| 20260906170812 | 11 | 130 | 4.8 | 9.7 | 0.00 | 0.00 | 0.00 | 94 | 1018.6 |
| 20260906170306 | 11 | 114 | 6.4 | 12.9 | 0.00 | 0.00 | 0.00 | 94 | 1018.7 |
| 20260906170047 | 11 | 104 | 4.8 | 11.3 | 0.00 | 0.00 | 0.00 | 94 | 1018.8 |
| 20260906165942 | 11 | 99 | 9.7 | 12.9 | 0.00 | 0.00 | 0.00 | 94 | 1018.8 |
| 20260906164805 | 11 | 123 | 4.8 | 8.0 | 0.00 | 0.00 | 0.00 | 94 | 1018.9 |
| 20260906164306 | 11 | 136 | 3.2 | 8.0 | 0.00 | 0.00 | 0.00 | 94 | 1018.8 |
| 20260906163805 | 11 | 128 | 4.8 | 8.0 | 0.00 | 0.00 | 0.00 | 94 | 1018.8 |
| 20260906163305 | 11 | 146 | 6.4 | 12.9 | 0.00 | 0.00 | 0.00 | 94 | 1018.9 |
| 20260906163156 | 11 | 132 | 6.4 | 12.9 | 0.00 | 0.00 | 0.00 | 94 | 1018.9 |
| 20260906162308 | 11 | 123 | 4.8 | 12.9 | 0.00 | 0.00 | 0.00 | 94 | 1018.9 |
| 20260906161806 | 11 | 137 | 6.4 | 11.3 | 0.00 | 0.00 | 0.00 | 94 | 1018.9 |
| 20260906161305 | 11 | 132 | 4.8 | 8.0 | 0.00 | 0.00 | 0.00 | 94 | 1018.9 |
| 20260906160807 | 10 | 136 | 4.8 | 8.0 | 0.00 | 0.00 | 0.00 | 94 | 1018.9 |
| 20260906160306 | 10 | 140 | 3.2 | 8.0 | 0.00 | 0.00 | 0.00 | 94 | 1018.9 |
| 20260906155803 | 10 | 140 | 3.2 | 4.8 | 0.00 | 0.00 | 0.00 | 94 | 1018.8 |
| 20260906155307 | 10 | 146 | 1.6 | 3.2 | 0.00 | 0.00 | 0.00 | 94 | 1018.7 |
| 20260906155146 | 10 | 155 | 1.6 | 4.8 | 0.00 | 0.00 | 0.00 | 94 | 1018.7 |
| 20260906154305 | 10 | 155 | 1.6 | 4.8 | 0.00 | 0.00 | 0.00 | 94 | 1018.7 |
| 20260906153803 | 10 | 155 | 1.6 | 3.2 | 0.00 | 0.00 | 0.00 | 94 | 1018.7 |
| 20260906153302 | 10 | 155 | 0.0 | 1.6 | 0.00 | 0.00 | 0.00 | 94 | 1018.8 |
| 20260906152802 | 10 | 155 | 0.0 | 3.2 | 0.00 | 0.00 | 0.00 | 94 | 1018.9 |
| 20260906152300 | 10 | 155 | 0.0 | 3.2 | 0.00 | 0.00 | 0.00 | 94 | 1018.8 |
| 20260906151803 | 10 | 155 | 1.6 | 3.2 | 0.00 | 0.00 | 0.00 | 94 | 1018.8 |
| 20260906151303 | 10 | 209 | 0.0 | 0.0 | 0.00 | 0.00 | 0.00 | 94 | 1018.9 |
| 20260906150801 | 10 | 209 | 0.0 | 0.0 | 0.00 | 0.00 | 0.00 | 94 | 1018.7 |
| 20260906150302 | 10 | 209 | 0.0 | 0.0 | 0.00 | 0.00 | 0.00 | 94 | 1018.7 |
| 20260906145803 | 10 | 209 | 0.0 | 0.0 | 0.00 | 0.00 | 0.00 | 94 | 1018.7 |
| 20260906145302 | 10 | 209 | 0.0 | 0.0 | 0.00 | 0.00 | 0.00 | 94 | 1018.7 |
| 20260906144802 | 10 | 209 | 0.0 | 0.0 | 0.00 | 0.00 | 0.00 | 94 | 1018.7 |
| 20260906144301 | 10 | 209 | 0.0 | 0.0 | 0.00 | 0.00 | 0.00 | 94 | 1018.8 |
| 20260906143803 | 10 | 209 | 0.0 | 0.0 | 0.00 | 0.00 | 0.00 | 94 | 1018.9 |
| 20260906143302 | 10 | 209 | 0.0 | 0.0 | 0.00 | 0.00 | 0.00 | 94 | 1019.0 |
| 20260906142802 | 9 | 209 | 0.0 | 3.2 | 0.00 | 0.00 | 0.00 | 94 | 1019.0 |
| 20260906142607 | 9 | 209 | 1.6 | 4.8 | 0.00 | 0.00 | 0.00 | 94 | 1019.1 |
| 20260906142439 | 9 | 209 | 1.6 | 4.8 | 0.00 | 0.00 | 0.00 | 94 | 1019.0 |
| 20260906141301 | 9 | 209 | 1.6 | 3.2 | 0.00 | 0.00 | 0.00 | 94 | 1019.1 |
| 20260906140804 | 9 | 209 | 0.0 | 0.0 | 0.00 | 0.00 | 0.00 | 94 | 1019.2 |
| 20260906140303 | 9 | 209 | 0.0 | 0.0 | 0.00 | 0.00 | 0.00 | 94 | 1019.2 |
| 20260906140152 | 9 | 209 | 0.0 | 4.8 | 0.00 | 0.00 | 0.00 | 94 | 1019.2 |
| 20260906135658 | 9 | 209 | 0.0 | 4.8 | 0.00 | 0.00 | 0.00 | 94 | 1019.2 |
| 20260906135103 | 9 | 174 | 0.0 | 0.0 | 0.00 | 0.00 | 0.00 | 94 | 1019.2 |
| 20260906134939 | 9 | 174 | 0.0 | 0.0 | 0.00 | 0.00 | 0.00 | 94 | 1019.2 |
| 20260906133807 | 9 | 174 | 0.0 | 0.0 | 0.00 | 0.00 | 0.00 | 94 | 1019.2 |
| 20260906133301 | 9 | 174 | 0.0 | 0.0 | 0.00 | 0.00 | 0.00 | 94 | 1019.1 |
| 20260906133157 | 9 | 174 | 0.0 | 3.2 | 0.00 | 0.00 | 0.00 | 94 | 1019.1 |
| 20260906132306 | 9 | 174 | 1.6 | 3.2 | 0.00 | 0.00 | 0.00 | 94 | 1019.2 |
| 20260906131802 | 9 | 174 | 0.0 | 1.6 | 0.00 | 0.00 | 0.00 | 94 | 1019.2 |
| 20260906131659 | 9 | 174 | 0.0 | 4.8 | 0.00 | 0.00 | 0.00 | 94 | 1019.1 |
| 20260906130802 | 9 | 174 | 1.6 | 6.4 | 0.00 | 0.00 | 0.00 | 94 | 1019.2 |
| 20260906130305 | 9 | 165 | 1.6 | 6.4 | 0.00 | 0.00 | 0.00 | 94 | 1019.2 |
| 20260906125802 | 9 | 180 | 4.8 | 6.4 | 0.00 | 0.00 | 0.00 | 94 | 1019.3 |
| 20260906125301 | 10 | 167 | 3.2 | 6.4 | 0.00 | 0.00 | 0.00 | 94 | 1019.3 |
| 20260906124801 | 10 | 203 | 6.4 | 6.4 | 0.00 | 0.00 | 0.00 | 94 | 1019.6 |
| 20260906124302 | 10 | 203 | 6.4 | 8.0 | 0.00 | 0.00 | 0.00 | 94 | 1019.6 |
| 20260906123801 | 10 | 190 | 6.4 | 9.7 | 0.00 | 0.00 | 0.00 | 94 | 1019.7 |
| 20260906123305 | 10 | 188 | 6.4 | 9.7 | 0.00 | 0.00 | 0.00 | 94 | 1019.7 |
| 20260906122801 | 10 | 195 | 6.4 | 9.7 | 0.00 | 0.00 | 0.00 | 94 | 1019.7 |
| 20260906122301 | 10 | 193 | 8.0 | 9.7 | 0.00 | 0.00 | 0.00 | 94 | 1019.9 |
| 20260906121802 | 10 | 194 | 4.8 | 6.4 | 0.00 | 0.00 | 0.00 | 94 | 1020.0 |
| 20260906121302 | -17 | 0.0 | 0.0 | 0.00 | 0.00 | 0.00 | |||
| 20260906120808 | 10 | 169 | 8.0 | 9.7 | 0.00 | 0.00 | 0.00 | 94 | 1020.2 |
| 20260906120302 | 10 | 169 | 8.0 | 9.7 | 0.00 | 0.00 | 0.00 | 94 | 1020.2 |
| 20260906115801 | 10 | 167 | 6.4 | 9.7 | 0.00 | 0.00 | 0.00 | 94 | 1020.1 |
| 20260906115305 | 10 | 166 | 4.8 | 11.3 | 0.00 | 0.00 | 0.00 | 94 | 1020.1 |
| 20260906114803 | 10 | 173 | 8.0 | 11.3 | 0.00 | 0.00 | 0.00 | 94 | 1020.1 |
| 20260906114652 | -17 | 0.0 | 0.0 | 0.00 | 0.00 | 0.00 | |||
| 20260906113801 | 10 | 173 | 6.4 | 8.0 | 0.00 | 0.00 | 0.00 | 94 | 1020.3 |
| 20260906113303 | 10 | 173 | 6.4 | 9.7 | 0.00 | 0.00 | 0.00 | 94 | 1020.3 |
| 20260906113234 | 10 | 196 | 4.8 | 8.0 | 0.00 | 0.00 | 0.00 | 94 | 1020.5 |
| 20260906113229 | 10 | 194 | 3.2 | 4.8 | 0.00 | 0.00 | 0.00 | 94 | 1020.5 |
| 20260906113222 | 10 | 167 | 8.0 | 9.7 | 0.00 | 0.00 | 0.00 | 94 | 1020.6 |
| 20260906112358 | 10 | 185 | 6.4 | 8.0 | 0.00 | 0.00 | 0.00 | 94 | 1020.6 |
| 20260906110805 | 10 | 194 | 3.2 | 4.8 | 0.00 | 0.00 | 0.00 | 94 | 1020.5 |
| 20260906110310 | 10 | 300 | 0.0 | 0.0 | 0.00 | 0.00 | 0.00 | 94 | 1020.5 |
| 20260906105803 | 10 | 300 | 0.0 | 0.0 | 0.00 | 0.00 | 0.00 | 94 | 1020.1 |
| 20260906105645 | 10 | 300 | 0.0 | 0.0 | 0.00 | 0.00 | 0.00 | 94 | 1020.1 |
| 20260906105151 | 10 | 300 | 0.0 | 0.0 | 0.00 | 0.00 | 0.00 | 94 | 1020.1 |
| 20260906104303 | 10 | 300 | 0.0 | 0.0 | 0.00 | 0.00 | 0.00 | 94 | 1020.0 |
| 20260906103801 | 10 | 300 | 0.0 | 0.0 | 0.00 | 0.00 | 0.00 | 94 | 1020.0 |
| 20260906103307 | -17 | 0.0 | 0.0 | 0.00 | 0.00 | 0.00 | |||
| 20260906102801 | 10 | 300 | 0.0 | 0.0 | 0.00 | 0.00 | 0.00 | 94 | 1020.1 |
| 20260906102641 | 10 | 300 | 0.0 | 0.0 | 0.00 | 0.00 | 0.00 | 94 | 1020.1 |
| 20260906102135 | -17 | 0.0 | 0.0 | 0.00 | 0.00 | 0.00 | |||
| 20260906101302 | 10 | 300 | 0.0 | 0.0 | 0.00 | 0.00 | 0.00 | 94 | 1020.5 |
| 20260906100801 | 10 | 300 | 0.0 | 0.0 | 0.00 | 0.00 | 0.00 | 94 | 1020.5 |
| 20260906100300 | 10 | 300 | 0.0 | 0.0 | 0.00 | 0.00 | 0.00 | 94 | 1020.8 |
| 20260906095803 | 10 | 300 | 0.0 | 0.0 | 0.00 | 0.00 | 0.00 | 94 | 1020.8 |
| 20260906095305 | -17 | 0.0 | 0.0 | 0.00 | 0.00 | 0.00 | |||
| 20260906094802 | -17 | 0.0 | 0.0 | 0.00 | 0.00 | 0.00 | |||
| 20260906094301 | -17 | 0.0 | 0.0 | 0.00 | 0.00 | 0.00 | |||
| 20260906093800 | 10 | 300 | 0.0 | 0.0 | 0.00 | 0.00 | 0.00 | 94 | 1020.9 |
| 20260906093302 | 10 | 300 | 0.0 | 0.0 | 0.00 | 0.00 | 0.00 | 94 | 1020.9 |
| 20260906092803 | -17 | 0.0 | 0.0 | 0.00 | 0.00 | 0.00 | |||
| 20260906092305 | -17 | 0.0 | 0.0 | 0.00 | 0.00 | 0.00 | |||
| 20260906092148 | -17 | 0.0 | 0.0 | 0.00 | 0.00 | 0.00 | |||
| 20260906091302 | 10 | 300 | 0.0 | 0.0 | 0.00 | 0.00 | 0.00 | 94 | 1021.2 |
| 20260906090803 | 10 | 300 | 0.0 | 0.0 | 0.00 | 0.00 | 0.00 | 94 | 1021.2 |
| 20260906090301 | -17 | 0.0 | 0.0 | 0.00 | 0.00 | 0.00 | |||
| 20260906090150 | -17 | 0.0 | 0.0 | 0.00 | 0.00 | 0.00 | |||
| 20260906085300 | 10 | 300 | 0.0 | 0.0 | 0.00 | 0.00 | 0.00 | 94 | 1021.3 |
| 20260906085157 | 10 | 300 | 0.0 | 0.0 | 0.00 | 0.00 | 0.00 | 94 | 1021.3 |
| 20260906084301 | 10 | 300 | 0.0 | 0.0 | 0.00 | 0.00 | 0.00 | 94 | 1021.4 |
| 20260906083803 | -17 | 0.0 | 0.0 | 0.00 | 0.00 | 0.00 | |||
| 20260906083302 | -17 | 0.0 | 0.0 | 0.00 | 0.00 | 0.00 | |||
| 20260906082802 | -17 | 0.0 | 0.0 | 0.00 | 0.00 | 0.00 | |||
| 20260906082306 | -17 | 0.0 | 0.0 | 0.00 | 0.00 | 0.00 | |||
| 20260906081811 | -17 | 0.0 | 0.0 | 0.00 | 0.00 | 0.00 | |||
| 20260906081313 | -17 | 0.0 | 0.0 | 0.00 | 0.00 | 0.00 | |||
| 20260906080815 | -17 | 0.0 | 0.0 | 0.00 | 0.00 | 0.00 | |||
| 20260906080310 | -17 | 0.0 | 0.0 | 0.00 | 0.00 | 0.00 | |||
| 20260906080136 | -17 | 0.0 | 0.0 | 0.00 | 0.00 | 0.00 | |||
| 20260906075306 | -17 | 0.0 | 0.0 | 0.00 | 0.00 | 0.00 | |||
| 20260906074803 | -17 | 0.0 | 0.0 | 0.00 | 0.00 | 0.00 | |||
| 20260906074632 | 10 | 300 | 0.0 | 0.0 | 0.00 | 0.00 | 0.00 | 94 | 1021.3 |
| 20260906074122 | 10 | 300 | 0.0 | 0.0 | 0.00 | 0.00 | 0.00 | 94 | 1021.3 |
| 20260906073637 | -17 | 0.0 | 0.0 | 0.00 | 0.00 | 0.00 | |||
| 20260906072802 | 10 | 300 | 3.2 | 4.8 | 0.00 | 0.00 | 0.00 | 94 | 1021.6 |
| 20260906072305 | 10 | 300 | 3.2 | 4.8 | 0.00 | 0.00 | 0.00 | 94 | 1021.6 |
| 20260906071801 | 10 | 301 | 3.2 | 4.8 | 0.00 | 0.00 | 0.00 | 94 | 1021.6 |
| 20260906071301 | 10 | 300 | 3.2 | 4.8 | 0.00 | 0.00 | 0.00 | 94 | 1021.6 |
| 20260906070802 | 10 | 301 | 3.2 | 6.4 | 0.00 | 0.00 | 0.00 | 94 | 1021.7 |
| 20260906070306 | 10 | 300 | 3.2 | 6.4 | 0.00 | 0.00 | 0.00 | 94 | 1021.7 |
| 20260906065801 | 10 | 302 | 3.2 | 4.8 | 0.00 | 0.00 | 0.00 | 93 | 1021.6 |
| 20260906065305 | 10 | 315 | 1.6 | 4.8 | 0.00 | 0.00 | 0.00 | 94 | 1021.7 |
| 20260906064805 | 10 | 315 | 0.0 | 0.0 | 0.00 | 0.00 | 0.00 | 94 | 1021.6 |
| 20260906064305 | 10 | 315 | 0.0 | 0.0 | 0.00 | 0.00 | 0.00 | 94 | 1021.7 |
| 20260906063804 | 10 | 315 | 0.0 | 0.0 | 0.00 | 0.00 | 0.00 | 93 | 1021.7 |
| 20260906063302 | 10 | 315 | 0.0 | 0.0 | 0.00 | 0.00 | 0.00 | 93 | 1021.7 |
| 20260906062805 | 10 | 315 | 0.0 | 0.0 | 0.00 | 0.00 | 0.00 | 93 | 1021.8 |
| 20260906062305 | 10 | 315 | 0.0 | 3.2 | 0.00 | 0.00 | 0.00 | 93 | 1021.7 |
| 20260906061801 | 10 | 315 | 0.0 | 3.2 | 0.00 | 0.00 | 0.00 | 93 | 1021.8 |
| 20260906061626 | 10 | 315 | 1.6 | 4.8 | 0.00 | 0.00 | 0.00 | 93 | 1021.8 |
| 20260906060803 | 10 | 315 | 0.0 | 4.8 | 0.00 | 0.00 | 0.00 | 93 | 1021.9 |
| 20260906060302 | 10 | 309 | 1.6 | 0.0 | 0.00 | 0.00 | 0.00 | 93 | 1021.8 |
| 20260906055801 | 10 | 309 | 1.6 | 4.8 | 0.00 | 0.00 | 0.00 | 93 | 1021.8 |
| 20260906055306 | 10 | 309 | 0.0 | 4.8 | 0.00 | 0.00 | 0.00 | 93 | 1021.9 |
| 20260906054802 | 10 | 296 | 3.2 | 3.2 | 0.00 | 0.00 | 0.00 | 93 | 1021.9 |
| 20260906054301 | 10 | 276 | 3.2 | 3.2 | 0.00 | 0.00 | 0.00 | 93 | 1022.0 |
| 20260906053802 | 10 | 276 | 1.6 | 3.2 | 0.00 | 0.00 | 0.00 | 93 | 1022.0 |
| 20260906053302 | 10 | 280 | 3.2 | 1.6 | 0.00 | 0.00 | 0.00 | 93 | 1022.1 |
| 20260906052802 | 10 | 280 | 3.2 | 4.8 | 0.00 | 0.00 | 0.00 | 93 | 1022.0 |
| 20260906052306 | 10 | 296 | 1.6 | 4.8 | 0.00 | 0.00 | 0.00 | 93 | 1022.1 |
| 20260906051801 | 10 | 296 | 3.2 | 3.2 | 0.00 | 0.00 | 0.00 | 93 | 1022.2 |
| 20260906051353 | 10 | 296 | 0.0 | 1.6 | 0.00 | 0.00 | 0.00 | 93 | 1021.9 |
| 20260906051322 | 10 | 296 | 0.0 | 3.2 | 0.00 | 0.00 | 0.00 | 93 | 1022.0 |
| 20260906050948 | 10 | 296 | 0.0 | 0.0 | 0.00 | 0.00 | 0.00 | 93 | 1022.0 |
| 20260906050858 | 10 | 296 | 0.0 | 0.0 | 0.00 | 0.00 | 0.00 | 93 | 1022.0 |
| 20260906045301 | 10 | 296 | 1.6 | 1.6 | 0.00 | 0.00 | 0.00 | 93 | 1022.0 |
| 20260906044801 | 10 | 296 | 3.2 | 3.2 | 0.00 | 0.00 | 0.00 | 93 | 1021.9 |
| 20260906044301 | 10 | 296 | 3.2 | 3.2 | 0.00 | 0.00 | 0.00 | 93 | 1021.9 |
| 20260906043802 | 10 | 296 | 1.6 | 3.2 | 0.00 | 0.00 | 0.00 | 93 | 1021.9 |
| 20260906043301 | 10 | 296 | 1.6 | 3.2 | 0.00 | 0.00 | 0.00 | 93 | 1021.7 |
| 20260906042802 | 10 | 296 | 1.6 | 4.8 | 0.00 | 0.00 | 0.00 | 93 | 1021.7 |
| 20260906042647 | 10 | 297 | 3.2 | 4.8 | 0.00 | 0.00 | 0.00 | 93 | 1021.6 |
| 20260906041801 | 10 | 293 | 1.6 | 4.8 | 0.00 | 0.00 | 0.00 | 93 | 1021.6 |
| 20260906041303 | 10 | 300 | 3.2 | 3.2 | 0.00 | 0.00 | 0.00 | 93 | 1021.6 |
| 20260906040802 | 10 | 335 | 3.2 | 4.8 | 0.00 | 0.00 | 0.00 | 93 | 1021.4 |
| 20260906040301 | 10 | 335 | 3.2 | 4.8 | 0.00 | 0.00 | 0.00 | 93 | 1021.4 |
| 20260906035801 | 10 | 335 | 4.8 | 4.8 | 0.00 | 0.00 | 0.00 | 93 | 1021.4 |
| 20260906035300 | 10 | 335 | 3.2 | 4.8 | 0.00 | 0.00 | 0.00 | 93 | 1021.3 |
| 20260906034805 | 10 | 335 | 3.2 | 4.8 | 0.00 | 0.00 | 0.00 | 93 | 1021.3 |
| 20260906034305 | 10 | 320 | 4.8 | 3.2 | 0.00 | 0.00 | 0.00 | 93 | 1021.3 |
| 20260906033807 | -17 | 0.0 | 0.0 | 0.00 | 0.00 | 0.00 | |||
| 20260906033546 | 10 | 317 | 3.2 | 4.8 | 0.00 | 0.00 | 0.00 | 93 | 1021.3 |
| 20260906033438 | 10 | 317 | 3.2 | 3.2 | 0.00 | 0.00 | 0.00 | 93 | 1021.3 |
| 20260906032309 | 10 | 317 | 3.2 | 6.4 | 0.00 | 0.00 | 0.00 | 92 | 1021.3 |
| 20260906031806 | 10 | 317 | 3.2 | 6.4 | 0.00 | 0.00 | 0.00 | 92 | 1021.4 |
| 20260906031653 | 10 | 337 | 4.8 | 6.4 | 0.00 | 0.00 | 0.00 | 92 | 1021.3 |
| 20260906031148 | 10 | 315 | 4.8 | 4.8 | 0.00 | 0.00 | 0.00 | 92 | 1021.3 |
| 20260906030647 | 10 | 315 | 4.8 | 4.8 | 0.00 | 0.00 | 0.00 | 92 | 1021.3 |
| 20260906030155 | 10 | 318 | 4.8 | 11.3 | 0.00 | 0.00 | 0.00 | 92 | 1021.3 |
| 20260906025307 | 10 | 300 | 6.4 | 11.3 | 0.00 | 0.00 | 0.00 | 92 | 1021.3 |
| 20260906024803 | 10 | 305 | 4.8 | 8.0 | 0.00 | 0.00 | 0.00 | 92 | 1021.3 |
| 20260906024301 | 10 | 279 | 4.8 | 6.4 | 0.00 | 0.00 | 0.00 | 92 | 1021.3 |
| 20260906023800 | 10 | 268 | 4.8 | 6.4 | 0.00 | 0.00 | 0.00 | 92 | 1021.3 |
| 20260906023656 | 10 | 288 | 4.8 | 6.4 | 0.00 | 0.00 | 0.00 | 92 | 1021.3 |
| 20260906022801 | 10 | 288 | 3.2 | 6.4 | 0.00 | 0.00 | 0.00 | 92 | 1021.3 |
| 20260906022302 | 10 | 324 | 3.2 | 4.8 | 0.00 | 0.00 | 0.00 | 92 | 1021.3 |
| 20260906021804 | 10 | 324 | 3.2 | 6.4 | 0.00 | 0.00 | 0.00 | 92 | 1021.3 |
| 20260906021302 | 10 | 324 | 3.2 | 6.4 | 0.00 | 0.00 | 0.00 | 92 | 1021.3 |
| 20260906020802 | 10 | 306 | 3.2 | 6.4 | 0.00 | 0.00 | 0.00 | 92 | 1021.3 |
| 20260906020659 | 10 | 306 | 3.2 | 6.4 | 0.00 | 0.00 | 0.00 | 92 | 1021.4 |
| 20260906015801 | 10 | 301 | 3.2 | 6.4 | 0.00 | 0.00 | 0.00 | 92 | 1021.4 |
| 20260906015305 | 11 | 317 | 3.2 | 4.8 | 0.00 | 0.00 | 0.00 | 91 | 1021.4 |
| 20260906014812 | 11 | 333 | 3.2 | 4.8 | 0.00 | 0.00 | 0.00 | 91 | 1021.4 |
| 20260906014648 | 11 | 351 | 3.2 | 4.8 | 0.00 | 0.00 | 0.00 | 91 | 1021.3 |
| 20260906013806 | 11 | 57 | 0.0 | 0.0 | 0.00 | 0.00 | 0.00 | 91 | 1021.3 |
| 20260906013307 | 11 | 57 | 0.0 | 0.0 | 0.00 | 0.00 | 0.00 | 91 | 1021.2 |
| 20260906012801 | 11 | 57 | 0.0 | 0.0 | 0.00 | 0.00 | 0.00 | 91 | 1021.2 |
| 20260906012305 | 11 | 57 | 0.0 | 3.2 | 0.00 | 0.00 | 0.00 | 91 | 1021.1 |
| 20260906012143 | 11 | 42 | 0.0 | 6.4 | 0.00 | 0.00 | 0.00 | 91 | 1021.1 |
| 20260906012138 | 11 | 57 | 0.0 | 4.8 | 0.00 | 0.00 | 0.00 | 91 | 1021.2 |
| 20260906011958 | 11 | 57 | 0.0 | 3.2 | 0.00 | 0.00 | 0.00 | 91 | 1021.2 |
| 20260906011727 | 11 | 57 | 3.2 | 6.4 | 0.00 | 0.00 | 0.00 | 91 | 1021.1 |
| 20260906010434 | 11 | 54 | 1.6 | 6.4 | 0.00 | 0.00 | 0.00 | 91 | 1021.1 |
| 20260906005306 | 11 | 55 | 1.6 | 6.4 | 0.00 | 0.00 | 0.00 | 90 | 1021.1 |
| 20260906004801 | 11 | 74 | 0.0 | 0.0 | 0.00 | 0.00 | 0.00 | 90 | 1021.1 |
| 20260906004301 | 11 | 74 | 0.0 | 6.4 | 0.00 | 0.00 | 0.00 | 90 | 1021.0 |
| 20260906003803 | 11 | 74 | 0.0 | 6.4 | 0.00 | 0.00 | 0.00 | 90 | 1021.0 |
| 20260906003309 | 11 | 69 | 3.2 | 6.4 | 0.00 | 0.00 | 0.00 | 90 | 1021.0 |
| 20260906002801 | 11 | 51 | 3.2 | 8.0 | 0.00 | 0.00 | 0.00 | 90 | 1021.1 |
| 20260906002305 | 11 | 86 | 4.8 | 8.0 | 0.00 | 0.00 | 0.00 | 89 | 1021.1 |
| 20260906001801 | 11 | 76 | 3.2 | 8.0 | 0.00 | 0.00 | 0.00 | 89 | 1021.0 |
| 20260906001302 | 11 | 34 | 4.8 | 8.0 | 0.00 | 0.00 | 0.00 | 89 | 1021.0 |
| 20260906000801 | 11 | 352 | 3.2 | 6.4 | 0.00 | 0.00 | 0.00 | 88 | 1021.0 |
| 20260906000559 | 11 | 346 | 8.0 | 14.5 | 0.00 | 0.00 | 0.00 | 88 | 1021.0 |
| 20260906000434 | 11 | 42 | 4.8 | 14.5 | 0.00 | 0.00 | 0.00 | 88 | 1021.0 |
| 20260905235306 | 11 | 352 | 8.0 | 12.9 | 0.00 | 0.00 | 0.00 | 88 | 1021.0 |
| 20260905234802 | 11 | 28 | 6.4 | 14.5 | 0.00 | 0.00 | 0.00 | 88 | 1021.0 |
| 20260905234301 | 11 | 349 | 11.3 | 14.5 | 0.00 | 0.00 | 0.00 | 88 | 1020.9 |
| 20260905233802 | 11 | 26 | 11.3 | 14.5 | 0.00 | 0.00 | 0.00 | 88 | 1020.9 |
| 20260905233302 | 11 | 5 | 11.3 | 14.5 | 0.00 | 0.00 | 0.00 | 88 | 1020.9 |
| 20260905233158 | 11 | 348 | 6.4 | 11.3 | 0.00 | 0.00 | 0.00 | 88 | 1021.0 |